Weather History for Duluth Sky Harbor, MN

Change the Weather History Date:

Wednesday, October 24, 2012

  Actual Average Record
Temperature  
Mean Temperature 48 °F -  
Max Temperature 51 °F 49 °F 76 °F (1963)
Min Temperature 44 °F 35 °F 15 °F (1960)
Degree Days  
Heating Degree Days 18    
Moisture  
Dew Point 46 °F    
Average Humidity 94    
Maximum Humidity 100    
Minimum Humidity 88    
Precipitation  
Precipitation 0.00 in - - ()
Sea Level Pressure  
Sea Level Pressure 29.82 in    
Wind  
Wind Speed 3 mph (North)    
Max Wind Speed 16 mph    
Max Gust Speed 30 mph    
Visibility 4 miles    
Events Fog , Rain , Thunderstorm    
Averages and records for this station are not official NWS values.
T = Trace of Precipitation, MM = Missing Value Source: NWS Daily Summary

Daily Weather History Graph

Daily Weather History Graph

Search for Another Location

Airport:

Trip Planner

Search our weather history database for the weather conditions in past years. The results will help you decide how hot, cold, wet, or windy it might be!

Date:

Astronomy

Oct. 24, 2012 Rise Set
Actual Time 7:39 AM CDT 6:04 PM CDT
Civil Twilight 7:08 AM CDT 6:35 PM CDT
Nautical Twilight 6:32 AM CDT 7:10 PM CDT
Astronomical Twilight 5:57 AM CDT 7:45 PM CDT
Moon 3:35 PM CDT (10/24) 2:17 AM CDT (10/24)
Length of Visible Light 11h 27m
Length of Day
10h 25m
Waxing Gibbous, 76% of the Moon is Illuminated
Oct 24
Waxing Gibbous
Oct 29
Full
Nov 6
Last Quarter
Nov 13
New
Nov 20
First Quarter

Hourly Weather History & Observations

Time (CDT) Temp. Windchill Dew Point Humidity Pressure Visibility Wind Dir Wind Speed Gust Speed Precip Events Conditions
12:13 AM 44.6 °F 43.1 °F 44.6 °F 100% 29.80 in 1.0 mi East 3.5 mph - N/A   Overcast
12:33 AM 44.6 °F 43.1 °F 44.6 °F 100% 29.80 in 0.8 mi East 3.5 mph - N/A   Overcast
1:13 AM 44.6 °F - 44.6 °F 100% 29.81 in 0.8 mi Calm Calm - N/A   Overcast
1:33 AM 44.6 °F - 42.8 °F 93% 29.80 in 0.8 mi Calm Calm - N/A   Overcast
1:54 AM 44.6 °F - 44.6 °F 100% 29.80 in 0.5 mi Calm Calm - N/A Fog Fog
2:13 AM 44.6 °F - 42.8 °F 93% 29.80 in 0.5 mi Calm Calm - N/A Fog Fog
2:33 AM 44.6 °F 42.2 °F 42.8 °F 93% 29.81 in 0.5 mi NNW 4.6 mph - N/A Fog Fog
2:54 AM 44.6 °F 43.1 °F 42.8 °F 93% 29.82 in 0.8 mi NNW 3.5 mph - N/A   Overcast
3:13 AM 44.6 °F 41.4 °F 44.6 °F 100% 29.82 in 0.8 mi North 5.8 mph - N/A   Overcast
3:33 AM 44.6 °F 43.1 °F 44.6 °F 100% 29.82 in 0.5 mi North 3.5 mph - N/A Fog Fog
3:54 AM 44.6 °F - 44.6 °F 100% 29.82 in 0.8 mi Calm Calm - N/A   Overcast
4:14 AM 44.6 °F - 44.6 °F 100% 29.82 in 0.8 mi Calm Calm - N/A   Overcast
4:33 AM 44.6 °F - 42.8 °F 93% 29.82 in 1.5 mi Calm Calm - N/A   Overcast
4:54 AM 44.6 °F - 42.8 °F 93% 29.83 in 3.0 mi Calm Calm - N/A   Overcast
5:13 AM 44.6 °F - 42.8 °F 93% 29.83 in 4.0 mi Calm Calm - N/A   Overcast
5:34 AM 44.6 °F 43.1 °F 42.8 °F 93% 29.82 in 2.5 mi NE 3.5 mph - N/A   Overcast
5:54 AM 44.6 °F 42.2 °F 42.8 °F 93% 29.81 in 1.2 mi ENE 4.6 mph - N/A   Overcast
6:13 AM 44.6 °F - 42.8 °F 93% 29.83 in 1.8 mi Calm Calm - N/A   Overcast
6:34 AM 44.6 °F - 44.6 °F 100% 29.85 in 5.0 mi Calm Calm - N/A   Overcast
6:53 AM 44.6 °F - 44.6 °F 100% 29.84 in 2.0 mi Calm Calm - N/A   Overcast
7:13 AM 44.6 °F - 44.6 °F 100% 29.85 in 2.0 mi Calm Calm - N/A   Overcast
7:34 AM 46.4 °F 44.3 °F 44.6 °F 93% 29.87 in 3.0 mi WSW 4.6 mph - N/A   Overcast
7:53 AM 46.4 °F 45.2 °F 44.6 °F 93% 29.86 in 2.5 mi South 3.5 mph - N/A   Overcast
8:13 AM 46.4 °F 43.5 °F 44.6 °F 93% 29.88 in 2.5 mi WNW 5.8 mph - N/A   Overcast
8:34 AM 46.4 °F 45.2 °F 44.6 °F 93% 29.87 in 2.0 mi NW 3.5 mph - N/A   Overcast
8:53 AM 46.4 °F - 44.6 °F 93% 29.87 in 0.8 mi Calm Calm - N/A   Overcast
9:13 AM 46.4 °F - 44.6 °F 93% 29.87 in 1.2 mi Calm Calm - N/A   Overcast
9:34 AM 48.2 °F - 46.4 °F 93% 29.88 in 2.5 mi Calm Calm - N/A   Overcast
9:53 AM 48.2 °F - 46.4 °F 93% 29.88 in 2.5 mi Calm Calm - N/A   Overcast
10:13 AM 48.2 °F - 46.4 °F 93% 29.88 in 3.0 mi Calm Calm - N/A   Overcast
10:34 AM 48.2 °F - 48.2 °F 100% 29.88 in 2.5 mi Calm Calm - N/A   Overcast
10:53 AM 50.0 °F - 48.2 °F 94% 29.88 in 4.0 mi Calm Calm - N/A   Overcast
11:13 AM 50.0 °F - 48.2 °F 94% 29.88 in 3.0 mi Calm Calm - N/A   Overcast
11:34 AM 48.2 °F - 46.4 °F 93% 29.87 in 3.0 mi Calm Calm - N/A   Mostly Cloudy
11:53 AM 48.2 °F - 46.4 °F 93% 29.86 in 2.5 mi Calm Calm - N/A   Mostly Cloudy
12:14 PM 50.0 °F - 48.2 °F 94% 29.83 in 3.0 mi Calm Calm - N/A   Clear
12:34 PM 50.0 °F - 48.2 °F 94% 29.83 in 2.0 mi ESE 5.8 mph - N/A   Mostly Cloudy
12:53 PM 50.0 °F - 48.2 °F 94% 29.83 in 2.5 mi SE 3.5 mph - N/A   Mostly Cloudy
1:13 PM 51.8 °F - 48.2 °F 88% 29.83 in 3.0 mi ESE 3.5 mph - N/A   Overcast
1:34 PM 51.8 °F - 51.8 °F 100% 29.83 in 7.0 mi SE 3.5 mph - N/A   Overcast
1:53 PM 51.8 °F - 51.8 °F 100% 29.83 in 7.0 mi ESE 3.5 mph - N/A   Overcast
2:13 PM 48.2 °F - 46.4 °F 93% 29.83 in 1.8 mi North 3.5 mph - N/A   Overcast
2:34 PM 48.2 °F - 46.4 °F 93% 29.83 in 1.2 mi North 5.8 mph - N/A   Overcast
2:53 PM 50.0 °F - 48.2 °F 94% 29.82 in 2.5 mi NW 3.5 mph - N/A   Overcast
3:13 PM 48.2 °F - 46.4 °F 93% 29.81 in 2.5 mi NNW 6.9 mph - N/A   Overcast
3:34 PM 51.8 °F - 48.2 °F 88% 29.79 in 4.0 mi North 8.1 mph - N/A Rain Rain
4:13 PM 50.0 °F - 48.2 °F 94% 29.80 in 1.8 mi Calm Calm - N/A Rain Rain
4:33 PM 51.8 °F - 48.2 °F 88% 29.79 in 1.8 mi NNW 3.5 mph - N/A Rain , Thunderstorm Light Thunderstorms and Rain
4:53 PM 51.8 °F - 50.0 °F 94% 29.79 in 0.5 mi North 6.9 mph - N/A Rain Light Rain
5:14 PM 48.2 °F - 48.2 °F 100% 29.79 in 0.2 mi North 6.9 mph - N/A   Drizzle
5:33 PM 51.8 °F - 48.2 °F 88% 29.79 in 1.0 mi North 9.2 mph - N/A Rain , Thunderstorm Thunderstorms and Rain
5:53 PM 50.0 °F - 48.2 °F 94% 29.80 in 4.0 mi North 10.4 mph - N/A Rain Heavy Rain
6:14 PM 50.0 °F - 48.2 °F 94% 29.80 in 10.0 mi North 11.5 mph - N/A Rain , Thunderstorm Light Thunderstorms and Rain
6:33 PM 48.2 °F - 46.4 °F 93% 29.80 in 10.0 mi North 9.2 mph - N/A Rain , Thunderstorm Thunderstorms and Rain
6:53 PM 48.2 °F - 46.4 °F 93% 29.80 in 10.0 mi North 5.8 mph - N/A Thunderstorm Overcast
7:14 PM 48.2 °F - 46.4 °F 93% 29.79 in 10.0 mi North 8.1 mph - N/A Thunderstorm Thunderstorm
7:53 PM 48.2 °F - 46.4 °F 93% 29.79 in 10.0 mi NNW 13.8 mph 18.4 mph N/A Thunderstorm Thunderstorm
8:13 PM 48.2 °F - 46.4 °F 93% 29.78 in 10.0 mi North 12.7 mph - N/A   Overcast
8:33 PM 48.2 °F - 46.4 °F 93% 29.78 in 10.0 mi North 13.8 mph 19.6 mph N/A   Overcast
8:54 PM 48.2 °F - 46.4 °F 93% 29.78 in 10.0 mi NNW 13.8 mph - N/A   Drizzle
9:13 PM 48.2 °F - 46.4 °F 93% 29.80 in 10.0 mi NNW 6.9 mph 11.5 mph N/A   Light Drizzle
9:34 PM 48.2 °F - 46.4 °F 93% 29.81 in 10.0 mi North 9.2 mph - N/A   Drizzle
9:53 PM 48.2 °F - 46.4 °F 93% 29.80 in 10.0 mi North 10.4 mph - N/A   Light Drizzle
10:13 PM 48.2 °F - 46.4 °F 93% 29.80 in 10.0 mi North 9.2 mph - N/A   Overcast
10:34 PM 48.2 °F - 46.4 °F 93% 29.80 in 10.0 mi North 10.4 mph - N/A   Overcast
10:53 PM 48.2 °F - 46.4 °F 93% 29.81 in 10.0 mi North 9.2 mph - N/A   Overcast
11:14 PM 48.2 °F - 46.4 °F 93% 29.79 in 10.0 mi NNW 16.1 mph 20.7 mph N/A   Overcast
11:33 PM 48.2 °F - 46.4 °F 93% 29.81 in 10.0 mi NW 11.5 mph - N/A   Overcast
11:53 PM 48.2 °F - 46.4 °F 93% 29.79 in 10.0 mi NNW 15.0 mph 29.9 mph N/A   Light Drizzle